Dewpoint
41 37 33 36 35 29 29 27 25 24 33 32 31 32 33 34 34 33 33 34 34 34 38 39 38 37 37 37 37 38 40 40 42 47 53 56 57 55 54 53 48 48 50 51
37 31 36 37 36 34 32 28 26 31 34 32 31 31 32 32 32 32 31 32 33 36 37 37 36 35 35 34 34 35 36 36 37 40 48 57 51 51 50 43 40 40 42 43
34 29 33 34 33 32 31 29 27 28 32 32 28 22 23 26 31 32 32 31 31 35 36 35 34 34 33 32 31 31 31 31 31 35 47 50 49 46 45 40 35 34 35 37
36 34 35 34 32 31 28 32 31 31 29 22 29 13 22 24 24 29 32 31 34 35 34 33 32 32 30 30 29 29 28 27 28 31 36 40 40 38 35 35 33 30 31 32
31 33 33 32 32 33 30 32 31 31 30 30 28 21 18 26 21 25 30 33 34 34 33 31 31 29 28 28 28 27 26 25 25 27 30 32 32 32 32 32 30 28 28 29
33 38 34 33 34 33 34 32 32 32 29 25 26 19 11 20 23 26 32 33 33 32 31 30 29 27 25 25 25 26 24 22 23 23 25 26 26 27 27 27 26 26 26 27
34 34 38 36 34 34 33 29 25 22 23 17 24 25 20 21 23 26 31 32 32 31 29 28 26 25 23 23 23 24 24 21 20 21 22 23 23 24 24 24 24 24 24 25
28 26 35 37 33 32 32 28 20 -0 14 19 25 21 19 24 26 28 33 33 32 30 29 27 26 25 23 21 21 22 22 21 19 19 19 21 22 22 23 23 23 24 24 25
29 27 36 37 36 34 33 30 30 27 23 22 21 23 22 27 28 31 32 32 31 30 29 28 25 23 22 20 20 20 20 20 20 18 18 19 20 20 20 22 22 23 23 24
30 27 33 36 35 34 34 33 28 27 19 16 16 18 14 19 22 30 31 31 30 30 29 27 24 22 21 19 18 19 19 19 19 18 18 18 19 20 21 21 22 23 24 25
28 29 32 34 34 31 31 30 30 28 23 15 13 15 19 24 25 29 31 31 31 30 30 28 25 22 20 19 18 18 18 18 17 17 18 18 18 19 20 21 22 22 23 24
31 32 29 32 33 34 31 30 30 25 23 24 20 17 23 24 27 29 30 31 32 31 30 28 26 23 20 18 17 17 17 17 17 17 17 17 18 19 20 20 21 22 23 24
33 31 25 28 32 31 33 33 30 29 28 24 18 18 25 27 27 27 28 29 30 31 30 28 25 24 21 19 17 16 17 16 17 16 16 17 17 19 20 20 21 22 22 22
33 32 25 19 21 27 27 30 30 29 27 25 23 23 24 25 27 25 27 28 28 30 30 29 26 24 22 20 17 16 16 16 16 16 16 17 18 19 19 20 21 21 21 21
35 30 29 25 26 28 27 27 27 28 28 25 24 24 26 26 27 28 28 27 27 27 27 29 29 26 22 21 17 15 15 15 16 16 16 16 18 18 19 20 21 21 20 20
36 29 31 27 27 23 22 25 28 29 28 29 28 27 28 28 28 27 25 24 22 22 23 26 30 29 26 21 17 14 14 15 15 15 15 16 17 18 18 19 20 20 19 19
33 27 26 19 24 22 20 21 23 23 24 25 23 24 25 23 21 20 19 20 22 25 26 26 27 29 28 22 16 14 14 15 15 15 16 17 18 18 18 19 19 19 19 20
28 23 20 18 17 14 16 18 22 22 22 23 22 20 18 19 20 21 24 25 23 23 26 26 28 30 28 18 14 14 15 15 16 16 16 17 18 19 21 21 21 22 21 19
28 25 22 18 16 15 16 16 16 17 14 19 18 18 19 20 18 15 18 20 22 22 22 22 19 20 16 14 14 15 16 16 16 17 18 19 20 20 21 20 21 21 21 19
27 26 18 18 17 14 15 16 17 15 11 12 15 14 13 13 9 10 15 20 21 19 19 18 16 15 15 15 16 16 16 16 16 17 19 20 20 20 20 20 20 21 21 19
22 23 21 18 18 17 18 16 17 12 8 13 13 12 11 11 12 16 19 19 19 19 17 15 15 15 15 16 16 16 16 16 17 18 19 19 20 19 20 20 20 20 19 17
22 21 21 21 19 17 20 16 12 12 13 11 11 11 13 14 16 20 21 21 19 18 17 16 15 15 16 17 16 16 15 17 17 17 17 17 18 19 19 18 18 18 16 15
21 21 19 21 18 20 20 16 16 17 16 15 15 15 15 18 20 21 22 21 18 17 15 15 14 15 16 16 15 14 15 16 16 15 15 16 17 18 18 16 15 14 14 11
20 21 17 19 20 21 18 19 19 18 17 18 19 19 20 20 21 22 22 20 17 16 15 14 14 14 15 15 14 14 15 15 15 14 14 14 14 15 16 15 13 10 9 8
17 19 16 16 16 19 20 20 19 19 20 20 21 21 21 22 22 22 21 19 17 15 14 13 13 13 13 13 13 13 14 14 13 13 13 13 13 13 12 11 10 7 7 7
19 16 15 13 16 15 14 16 19 20 20 21 21 21 20 20 20 19 19 18 16 14 12 12 11 11 10 11 10 11 13 14 13 12 12 11 10 9 7 7 7 8 9 8
Wind_Speed
4 6 18 19 13 8 6 4 7 4 5 10 14 17 19 22 19 19 17 14 12 5 10 10 10 10 12 15 16 15 14 14 13 6 3 4 5 8 12 15 17 17 15 15
4 13 14 8 10 9 3 2 4 1 2 4 8 18 20 22 23 22 25 22 18 10 11 9 10 12 13 12 12 13 13 14 12 8 3 2 7 11 14 14 18 15 16 15
10 3 16 10 10 12 9 9 4 1 2 4 6 14 8 10 20 18 16 16 14 23 17 11 9 10 10 11 12 13 13 13 13 12 4 11 9 8 10 12 12 14 14 14
5 10 12 13 13 10 13 8 6 2 3 5 4 10 7 6 8 3 11 9 15 19 15 12 10 9 9 8 12 14 14 14 13 13 11 10 8 8 7 10 10 12 13 14
10 8 10 12 9 7 5 5 8 5 3 4 3 7 10 5 12 6 8 14 15 15 14 12 10 9 8 9 12 11 12 13 13 14 12 11 13 11 9 9 11 11 13 15
7 2 6 10 6 9 7 9 8 6 3 9 13 14 7 5 5 7 10 12 15 15 13 11 9 8 9 9 9 9 11 12 12 13 14 14 13 10 10 10 11 11 10 11
6 4 2 4 10 5 7 12 4 3 5 12 0 9 12 9 3 12 21 18 16 15 14 12 10 7 6 6 6 7 8 9 10 12 14 13 13 13 12 11 10 10 10 10
14 9 14 10 10 9 16 10 8 8 8 4 2 9 5 7 8 2 11 15 15 13 11 11 9 8 7 6 6 6 5 5 7 10 12 11 12 11 11 11 10 10 10 8
15 8 3 4 6 13 8 13 5 3 2 1 5 5 10 3 3 8 14 14 11 11 12 12 10 10 9 9 8 8 7 5 5 8 10 10 11 11 11 10 10 9 7 7
8 5 3 4 5 2 6 11 6 2 6 7 4 4 7 2 6 7 13 14 13 11 11 12 13 13 11 9 8 8 8 8 7 7 8 9 10 10 10 10 10 10 9 9
5 5 4 9 13 17 8 9 5 7 5 4 3 3 4 2 3 13 14 14 15 16 18 16 14 12 11 10 11 10 9 8 7 8 9 10 9 9 9 10 9 9 9 10
3 4 7 11 1 6 6 9 13 8 5 6 1 5 3 1 7 13 14 12 11 12 14 14 14 14 15 15 13 12 10 9 8 9 9 10 10 9 9 9 8 8 10 11
9 6 6 5 4 0 8 7 8 5 2 9 8 3 5 12 13 9 8 5 9 16 16 16 16 19 20 19 17 15 13 11 10 10 10 10 9 9 9 8 8 8 10 12
17 7 8 13 3 8 9 13 16 14 16 8 16 5 6 7 1 5 6 12 13 13 15 14 17 21 20 20 19 17 15 13 11 11 10 9 9 9 8 8 9 10 9 11
9 9 12 5 7 7 7 19 24 24 22 19 11 15 14 19 16 14 14 9 7 14 16 18 21 20 20 20 18 17 16 15 14 14 12 11 9 9 9 8 9 9 10 10
14 3 8 8 1 2 7 10 14 14 10 15 17 23 16 19 15 19 20 20 20 20 21 21 17 19 21 22 21 18 19 17 16 15 13 12 11 9 8 8 9 10 10 10
13 12 8 5 5 4 12 16 15 12 11 15 20 19 13 18 17 18 19 17 18 20 20 17 16 18 20 19 19 21 20 18 17 15 13 12 11 11 10 9 9 9 10 10
14 12 4 5 5 12 7 3 17 25 22 21 19 17 22 17 17 13 14 16 19 15 14 14 13 14 9 10 15 18 18 17 16 14 13 12 11 11 9 9 10 9 9 10
11 10 6 8 14 8 9 5 12 13 22 23 23 24 18 13 4 12 13 11 12 9 7 9 9 5 7 14 17 20 18 17 16 15 13 11 10 9 9 9 9 8 8 9
6 5 11 6 7 12 6 18 12 6 25 16 21 23 23 5 15 11 8 8 9 7 6 7 1 4 11 14 17 19 18 16 15 13 12 10 9 9 8 7 7 6 6 8
7 5 21 13 9 13 16 7 11 13 13 18 19 17 13 11 14 4 5 9 8 7 5 1 2 6 9 13 16 16 16 14 14 14 13 13 11 10 9 8 7 7 7 10
18 15 11 6 9 23 13 5 20 27 5 8 10 12 13 14 13 10 12 13 11 10 6 6 7 8 10 13 16 15 15 14 14 14 14 12 12 9 9 10 5 8 9 10
15 13 14 18 15 6 14 22 24 5 13 11 10 13 13 13 14 16 14 14 15 14 11 9 12 13 11 11 13 17 15 15 15 15 14 13 12 10 8 10 10 8 8 8
7 6 8 8 21 23 11 21 14 10 20 22 16 13 13 20 22 19 14 13 16 16 16 14 15 15 14 12 11 13 16 15 16 15 14 13 13 12 8 8 7 8 8 8
9 17 16 11 25 4 15 21 25 24 21 18 16 20 24 19 21 18 14 15 16 17 15 17 17 16 16 13 13 15 16 17 16 14 12 11 10 11 10 8 8 8 6 9
14 20 21 22 18 10 22 25 18 24 25 25 24 22 20 17 19 12 16 14 17 18 17 17 16 17 16 15 15 14 13 15 17 16 13 12 11 11 11 12 12 9 8 7
Wind_Direction
164 156 202 197 178 114 129 192 235 247 218 195 230 255 264 270 281 274 265 250 236 206 132 99 80 65 62 50 47 37 31 14 14 3 360 33 75 76 62 58 52 48 45 44
131 217 218 211 211 216 261 242 258 126 196 198 269 269 267 261 257 242 243 241 240 151 139 108 82 65 61 58 51 41 33 20 11 0 332 75 101 81 79 67 57 45 47 41
182 240 211 205 204 211 220 213 217 66 346 267 316 285 263 272 246 241 227 226 223 172 157 132 99 80 70 63 56 47 37 27 16 5 39 107 95 77 67 57 58 44 46 46
233 235 189 195 204 180 205 198 181 145 2 254 28 289 293 257 282 241 217 175 140 145 139 131 121 98 80 74 65 55 43 34 26 25 56 80 104 108 75 81 79 59 44 45
213 220 203 189 193 167 194 173 193 178 230 324 214 259 280 284 266 226 148 142 137 137 140 137 128 120 104 78 67 63 59 47 37 46 59 83 94 91 88 81 80 66 49 42
206 229 197 192 156 163 152 109 79 81 89 264 222 206 270 228 220 165 157 151 146 144 143 139 135 127 97 80 75 69 66 56 50 58 60 76 89 96 94 79 77 65 55 43
182 225 203 165 144 168 161 145 133 202 201 236 62 197 256 270 243 187 175 170 165 157 153 155 148 133 121 111 93 79 76 70 66 70 71 74 81 85 86 82 82 72 60 47
173 200 194 190 184 180 183 186 175 208 196 217 121 224 244 275 263 251 166 158 156 163 165 169 167 169 156 141 124 117 110 100 87 85 81 78 81 85 82 81 81 79 75 65
172 214 195 188 147 158 189 206 161 90 43 257 218 270 296 167 89 135 154 150 158 173 182 185 182 184 181 174 167 162 149 124 92 92 93 88 88 88 89 84 81 75 71 76
170 160 205 166 128 143 184 160 185 169 214 230 248 246 229 197 228 167 158 165 185 193 199 201 198 193 190 187 179 171 165 154 135 117 98 92 92 92 93 91 89 86 81 79
157 127 170 156 208 183 161 189 189 184 192 203 188 227 222 67 212 173 184 194 197 204 214 213 207 201 194 190 190 184 173 160 144 129 123 114 105 99 92 91 93 93 89 82
155 95 177 198 345 226 190 181 181 188 210 227 189 249 167 25 150 169 188 209 222 228 228 223 212 206 203 202 201 195 184 172 166 146 134 122 111 103 98 96 97 97 91 77
142 141 161 169 269 33 207 212 190 150 126 215 201 206 92 115 105 111 132 166 215 227 230 221 212 213 213 210 205 198 188 181 164 152 138 127 121 117 113 110 104 96 91 89
151 178 210 195 188 153 209 199 213 210 231 227 233 221 232 260 289 187 295 289 271 257 255 239 231 226 219 213 207 197 188 178 164 150 140 133 129 127 125 120 109 101 95 98
134 203 198 138 143 160 205 217 216 219 229 234 246 241 240 268 289 287 285 288 298 294 290 269 252 240 227 220 206 195 182 172 161 152 146 142 136 131 126 119 111 103 95 91
164 202 183 184 324 230 227 222 218 224 228 245 250 258 253 260 267 274 286 290 295 293 288 287 273 257 242 222 207 185 177 169 157 153 150 145 139 133 128 120 109 106 96 90
177 146 171 194 210 211 257 226 213 212 214 218 235 238 253 263 263 270 276 278 281 284 288 293 287 275 258 225 190 183 166 153 153 149 148 149 145 140 137 124 115 111 102 94
170 152 146 145 131 245 240 296 218 219 229 227 243 257 253 253 263 271 267 269 279 284 288 297 307 303 275 181 157 143 146 148 147 148 150 150 146 138 131 121 116 110 114 105
152 149 137 182 209 291 277 214 190 193 242 239 241 252 254 255 251 272 249 250 259 268 276 286 303 297 141 148 146 143 145 147 148 149 146 143 144 142 134 134 128 125 130 123
120 148 184 153 200 231 236 203 184 139 252 228 222 243 257 228 263 265 230 238 246 255 280 294 313 143 146 145 141 144 148 149 151 146 139 131 132 134 134 128 120 109 114 115
154 158 204 191 222 266 241 224 138 206 244 212 222 235 238 221 242 213 191 232 234 245 252 222 150 166 152 140 138 141 141 148 137 130 132 132 132 132 127 121 119 123 122 115
179 178 193 165 214 258 191 171 193 224 121 179 201 220 245 253 268 259 232 227 224 230 201 179 169 161 149 147 142 145 147 140 137 136 133 132 131 132 128 121 114 113 116 115
198 193 195 192 217 223 189 208 215 220 250 248 242 246 236 245 268 273 259 228 219 212 201 182 173 159 155 152 154 155 152 143 138 136 137 135 126 122 124 134 134 133 130 132
229 167 213 176 241 234 211 225 238 220 240 243 242 246 230 260 260 252 240 228 213 199 197 184 173 172 169 161 157 152 146 142 141 141 145 142 137 128 128 128 132 142 142 136
196 164 213 237 257 209 232 224 230 235 245 265 262 253 249 240 251 242 247 232 214 201 187 183 187 180 173 157 151 147 147 146 145 144 142 138 139 136 141 133 140 136 133 138
193 211 200 224 227 213 254 255 232 234 245 247 248 254 240 223 240 244 252 226 202 195 181 182 182 173 168 160 155 152 152 154 149 149 150 152 150 149 150 144 140 137 142 124